When you browse on this site, cookies collect data to enhance your experience and personalize the content and advertising you see.
Visit our Privacy Policy to learn more. By continuing to use the site, you agree to this use of cookies and data.
EN

Hourly Weather Andora

Today, 6 July, Monday

Time Temperature Precipitation Wind Pressure Humidity
00:00 +13°C° 0 mm 2 mps 628 mmHg 81%
01:00 +12°C° 0 mm 2 mps 627 mmHg 81%
02:00 +12°C° 0 mm 2 mps 627 mmHg 82%
03:00 +12°C° 0 mm 2 mps 627 mmHg 83%
04:00 +12°C° 0 mm 2 mps 627 mmHg 81%
05:00 +13°C° 0 mm 2 mps 627 mmHg 79%
06:00 +14°C° 0 mm 2 mps 628 mmHg 78%
07:00 +16°C° 0 mm 2 mps 628 mmHg 72%
08:00 +18°C° 0 mm 2 mps 629 mmHg 66%
09:00 +19°C° 0 mm 2 mps 630 mmHg 60%
10:00 +21°C° 0 mm 2 mps 630 mmHg 57%
11:00 +23°C° 0 mm 2 mps 630 mmHg 54%
12:00 +24°C° 0 mm 2 mps 631 mmHg 51%
13:00 +23°C° 0 mm 2 mps 630 mmHg 53%
14:00 +23°C° 0 mm 2 mps 630 mmHg 56%
15:00 +21°C° 0 mm 3 mps 629 mmHg 59%
16:00 +20°C° 0 mm 3 mps 629 mmHg 64%
17:00 +18°C° 0 mm 3 mps 628 mmHg 68%
18:00 +17°C° 0 mm 3 mps 628 mmHg 73%
19:00 +14°C° 0 mm 3 mps 627 mmHg 78%
20:00 +13°C° 0 mm 3 mps 627 mmHg 83%
21:00 +11°C° 0 mm 3 mps 627 mmHg 88%
22:00 +10°C° 0 mm 3 mps 627 mmHg 87%
23:00 +10°C° 0 mm 2 mps 626 mmHg 85%

Tomorrow, 7 July, Tuesday

Time Temperature Precipitation Wind Pressure Humidity
00:00 +9°C° 0 mm 2 mps 626 mmHg 84%
01:00 +9°C° 0 mm 2 mps 626 mmHg 77%
02:00 +9°C° 0 mm 2 mps 625 mmHg 69%
03:00 +9°C° 0 mm 2 mps 625 mmHg 62%
04:00 +9°C° 0 mm 2 mps 625 mmHg 58%
05:00 +10°C° 0 mm 2 mps 626 mmHg 54%
06:00 +12°C° 0 mm 2 mps 626 mmHg 50%
07:00 +14°C° 0 mm 2 mps 627 mmHg 43%
08:00 +18°C° 0 mm 1 mps 628 mmHg 35%
09:00 +21°C° 0 mm 1 mps 629 mmHg 28%
10:00 +22°C° 0 mm 1 mps 629 mmHg 29%
11:00 +23°C° 0 mm 1 mps 630 mmHg 29%
12:00 +24°C° 0 mm 2 mps 630 mmHg 30%
13:00 +24°C° 0 mm 2 mps 630 mmHg 33%
14:00 +24°C° 0 mm 2 mps 630 mmHg 36%
15:00 +23°C° 0 mm 2 mps 629 mmHg 39%
16:00 +22°C° 0 mm 1 mps 629 mmHg 46%
17:00 +21°C° 0 mm 1 mps 628 mmHg 53%
18:00 +20°C° 0 mm 1 mps 628 mmHg 60%
19:00 +18°C° 0 mm 1 mps 627 mmHg 69%
20:00 +15°C° 0 mm 1 mps 627 mmHg 78%
21:00 +12°C° 0 mm 0 mps 626 mmHg 87%
22:00 +12°C° 0 mm 0 mps 626 mmHg 87%
23:00 +11°C° 0 mm 0 mps 626 mmHg 88%

Day after tomorrow, 8 July, Wednesday

Time Temperature Precipitation Wind Pressure Humidity
00:00 +12°C° 0 mm 1 mps 626 mmHg 88%
01:00 +12°C° 0 mm 1 mps 626 mmHg 88%
02:00 +12°C° 0 mm 1 mps 626 mmHg 89%
03:00 +12°C° 0 mm 1 mps 626 mmHg 89%
04:00 +13°C° 0 mm 1 mps 626 mmHg 85%
05:00 +14°C° 0 mm 1 mps 627 mmHg 81%
06:00 +15°C° 0 mm 1 mps 627 mmHg 76%
07:00 +18°C° 0 mm 1 mps 628 mmHg 66%
08:00 +20°C° 0 mm 1 mps 629 mmHg 56%
09:00 +23°C° 0 mm 1 mps 630 mmHg 46%
10:00 +24°C° 0 mm 2 mps 630 mmHg 44%
11:00 +25°C° 0 mm 2 mps 630 mmHg 41%
12:00 +26°C° 0 mm 2 mps 631 mmHg 39%
13:00 +26°C° 0 mm 2 mps 630 mmHg 40%
14:00 +26°C° 0 mm 2 mps 630 mmHg 41%
15:00 +26°C° 0 mm 2 mps 630 mmHg 41%
16:00 +24°C° 0.1 mm 1 mps 630 mmHg 49%
17:00 +23°C° 0.1 mm 1 mps 629 mmHg 56%
18:00 +22°C° 0.1 mm 1 mps 628 mmHg 63%
19:00 +20°C° 0 mm 1 mps 628 mmHg 71%
20:00 +18°C° 0 mm 1 mps 628 mmHg 79%
21:00 +15°C° 0 mm 1 mps 627 mmHg 87%
22:00 +15°C° 0.1 mm 1 mps 627 mmHg 85%
23:00 +15°C° 0.1 mm 1 mps 627 mmHg 84%

9 July, Thursday

Time Temperature Precipitation Wind Pressure Humidity
00:00 +15°C° 0.1 mm 1 mps 627 mmHg 83%
01:00 +15°C° 0 mm 1 mps 627 mmHg 80%
02:00 +15°C° 0 mm 1 mps 627 mmHg 77%
03:00 +15°C° 0 mm 1 mps 627 mmHg 73%
04:00 +15°C° 0 mm 1 mps 627 mmHg 71%
05:00 +16°C° 0 mm 1 mps 627 mmHg 69%
06:00 +18°C° 0 mm 1 mps 628 mmHg 67%
07:00 +20°C° 0 mm 1 mps 629 mmHg 61%
08:00 +22°C° 0 mm 1 mps 630 mmHg 55%
09:00 +24°C° 0 mm 2 mps 631 mmHg 49%
10:00 +25°C° 0 mm 2 mps 631 mmHg 46%
11:00 +26°C° 0 mm 2 mps 631 mmHg 43%
12:00 +27°C° 0 mm 3 mps 631 mmHg 40%
13:00 +26°C° 0.8 mm 2 mps 630 mmHg 45%
14:00 +25°C° 0.8 mm 2 mps 630 mmHg 49%
15:00 +24°C° 0.8 mm 2 mps 629 mmHg 54%
16:00 +23°C° 1.5 mm 2 mps 629 mmHg 61%
17:00 +21°C° 1.5 mm 1 mps 628 mmHg 68%
18:00 +19°C° 1.5 mm 1 mps 627 mmHg 75%
19:00 +18°C° 0.5 mm 1 mps 627 mmHg 76%
20:00 +16°C° 0.5 mm 1 mps 627 mmHg 77%
21:00 +15°C° 0.5 mm 1 mps 627 mmHg 78%
22:00 +15°C° 0 mm 1 mps 627 mmHg 77%
23:00 +15°C° 0 mm 1 mps 627 mmHg 76%

10 July, Friday

Time Temperature Precipitation Wind Pressure Humidity
00:00 +15°C° 0 mm 1 mps 627 mmHg 74%
01:00 +14°C° 0 mm 1 mps 626 mmHg 74%
02:00 +14°C° 0 mm 1 mps 626 mmHg 74%
03:00 +13°C° 0 mm 1 mps 626 mmHg 74%
04:00 +14°C° 0.1 mm 1 mps 626 mmHg 75%
05:00 +15°C° 0.1 mm 1 mps 627 mmHg 75%
06:00 +16°C° 0.1 mm 1 mps 627 mmHg 76%
07:00 +19°C° 0.2 mm 1 mps 628 mmHg 71%
08:00 +20°C° 0.2 mm 1 mps 628 mmHg 65%
09:00 +21°C° 0.2 mm 2 mps 629 mmHg 59%
10:00 +23°C° 0.2 mm 2 mps 629 mmHg 55%
11:00 +24°C° 0.2 mm 2 mps 630 mmHg 51%
12:00 +24°C° 0.2 mm 3 mps 630 mmHg 46%
13:00 +24°C° 0.3 mm 3 mps 630 mmHg 50%
14:00 +22°C° 0.3 mm 3 mps 629 mmHg 53%
15:00 +22°C° 0.3 mm 3 mps 629 mmHg 56%
16:00 +21°C° 0.4 mm 2 mps 628 mmHg 63%
17:00 +20°C° 0.4 mm 2 mps 628 mmHg 70%
18:00 +20°C° 0.4 mm 1 mps 627 mmHg 77%
19:00 +18°C° 0 mm 1 mps 627 mmHg 81%
20:00 +16°C° 0 mm 1 mps 627 mmHg 86%
21:00 +14°C° 0 mm 1 mps 627 mmHg 90%
22:00 +14°C° 0 mm 1 mps 627 mmHg 91%
23:00 +14°C° 0 mm 1 mps 627 mmHg 92%

11 July, Saturday

Time Temperature Precipitation Wind Pressure Humidity
00:00 +13°C° 0 mm 1 mps 627 mmHg 92%
01:00 +13°C° 0 mm 1 mps 627 mmHg 92%
02:00 +12°C° 0 mm 0 mps 626 mmHg 92%
03:00 +11°C° 0 mm 0 mps 626 mmHg 92%
04:00 +12°C° 0 mm 0 mps 627 mmHg 90%
05:00 +13°C° 0 mm 0 mps 627 mmHg 88%
06:00 +13°C° 0 mm 0 mps 627 mmHg 86%
07:00 +16°C° 0 mm 1 mps 628 mmHg 78%
08:00 +19°C° 0 mm 1 mps 629 mmHg 71%
09:00 +20°C° 0 mm 2 mps 630 mmHg 64%
10:00 +21°C° 0.1 mm 2 mps 630 mmHg 61%
11:00 +21°C° 0.1 mm 2 mps 630 mmHg 58%
12:00 +23°C° 0.1 mm 2 mps 630 mmHg 56%
13:00 +23°C° 0.2 mm 2 mps 630 mmHg 60%
14:00 +21°C° 0.2 mm 2 mps 629 mmHg 63%
15:00 +21°C° 0.2 mm 2 mps 629 mmHg 67%
16:00 +21°C° 0.3 mm 1 mps 628 mmHg 70%
17:00 +21°C° 0.3 mm 1 mps 628 mmHg 73%
18:00 +20°C° 0.3 mm 1 mps 628 mmHg 77%
19:00 +18°C° 0.1 mm 1 mps 628 mmHg 81%
20:00 +16°C° 0.1 mm 1 mps 627 mmHg 86%
21:00 +14°C° 0.1 mm 1 mps 627 mmHg 90%
22:00 +14°C° 0 mm 1 mps 627 mmHg 90%
23:00 +14°C° 0 mm 1 mps 627 mmHg 91%
Show more